Hourly Weather Elbasan

Today, 9 July, Thursday

Time Temperature Precipitation Wind Pressure Humidity
00:00 +20°C° 0 mm 2 mps 735 mmHg 72%
01:00 +19°C° 0 mm 2 mps 735 mmHg 72%
02:00 +19°C° 0 mm 2 mps 735 mmHg 71%
03:00 +19°C° 0 mm 2 mps 735 mmHg 70%
04:00 +19°C° 0 mm 2 mps 735 mmHg 69%
05:00 +21°C° 0 mm 2 mps 736 mmHg 65%
06:00 +23°C° 0 mm 2 mps 736 mmHg 61%
07:00 +25°C° 0 mm 2 mps 736 mmHg 58%
08:00 +27°C° 0 mm 2 mps 736 mmHg 54%
09:00 +29°C° 0 mm 2 mps 737 mmHg 50%
10:00 +30°C° 0 mm 1 mps 737 mmHg 46%
11:00 +31°C° 0 mm 2 mps 737 mmHg 44%
12:00 +32°C° 0 mm 2 mps 736 mmHg 42%
13:00 +32°C° 0 mm 2 mps 736 mmHg 40%
14:00 +32°C° 0 mm 2 mps 736 mmHg 41%
15:00 +32°C° 0 mm 2 mps 736 mmHg 42%
16:00 +31°C° 0 mm 3 mps 736 mmHg 43%
17:00 +29°C° 0 mm 2 mps 736 mmHg 49%
18:00 +27°C° 0 mm 1 mps 736 mmHg 56%
19:00 +25°C° 0 mm 1 mps 735 mmHg 63%
20:00 +24°C° 0 mm 1 mps 736 mmHg 64%
21:00 +23°C° 0 mm 1 mps 736 mmHg 65%
22:00 +23°C° 0 mm 1 mps 736 mmHg 67%
23:00 +21°C° 0 mm 2 mps 736 mmHg 67%

Tomorrow, 10 July, Friday

Time Temperature Precipitation Wind Pressure Humidity
00:00 +21°C° 0 mm 2 mps 736 mmHg 67%
01:00 +21°C° 0 mm 2 mps 736 mmHg 67%
02:00 +21°C° 0 mm 2 mps 736 mmHg 67%
03:00 +20°C° 0 mm 2 mps 736 mmHg 67%
04:00 +20°C° 0 mm 2 mps 736 mmHg 67%
05:00 +23°C° 0 mm 2 mps 736 mmHg 64%
06:00 +25°C° 0 mm 2 mps 736 mmHg 61%
07:00 +26°C° 0 mm 2 mps 736 mmHg 58%
08:00 +28°C° 0 mm 1 mps 736 mmHg 52%
09:00 +30°C° 0 mm 1 mps 736 mmHg 46%
10:00 +32°C° 0 mm 1 mps 736 mmHg 41%
11:00 +32°C° 0 mm 2 mps 736 mmHg 39%
12:00 +34°C° 0 mm 2 mps 736 mmHg 38%
13:00 +34°C° 0 mm 2 mps 735 mmHg 37%
14:00 +34°C° 0 mm 3 mps 735 mmHg 39%
15:00 +33°C° 0 mm 3 mps 735 mmHg 41%
16:00 +31°C° 0 mm 3 mps 735 mmHg 43%
17:00 +30°C° 0 mm 2 mps 735 mmHg 49%
18:00 +28°C° 0 mm 1 mps 735 mmHg 55%
19:00 +26°C° 0 mm 1 mps 734 mmHg 61%
20:00 +25°C° 0 mm 1 mps 735 mmHg 63%
21:00 +24°C° 0 mm 1 mps 735 mmHg 65%
22:00 +24°C° 0 mm 1 mps 735 mmHg 66%
23:00 +23°C° 0 mm 1 mps 735 mmHg 67%

Day after tomorrow, 11 July, Saturday

Time Temperature Precipitation Wind Pressure Humidity
00:00 +23°C° 0 mm 1 mps 735 mmHg 69%
01:00 +23°C° 0 mm 1 mps 735 mmHg 70%
02:00 +23°C° 0 mm 1 mps 735 mmHg 71%
03:00 +22°C° 0 mm 1 mps 735 mmHg 72%
04:00 +22°C° 0 mm 1 mps 735 mmHg 72%
05:00 +24°C° 0 mm 1 mps 735 mmHg 68%
06:00 +26°C° 0 mm 1 mps 735 mmHg 63%
07:00 +27°C° 0 mm 1 mps 735 mmHg 59%
08:00 +29°C° 0 mm 1 mps 735 mmHg 54%
09:00 +31°C° 0 mm 1 mps 735 mmHg 49%
10:00 +32°C° 0 mm 1 mps 735 mmHg 44%
11:00 +34°C° 0.1 mm 2 mps 735 mmHg 43%
12:00 +34°C° 0.1 mm 2 mps 734 mmHg 42%
13:00 +34°C° 0.1 mm 3 mps 734 mmHg 41%
14:00 +34°C° 0.1 mm 3 mps 734 mmHg 42%
15:00 +33°C° 0.1 mm 3 mps 734 mmHg 43%
16:00 +33°C° 0.1 mm 3 mps 733 mmHg 44%
17:00 +30°C° 0.1 mm 2 mps 733 mmHg 50%
18:00 +28°C° 0.1 mm 1 mps 733 mmHg 55%
19:00 +26°C° 0.1 mm 1 mps 733 mmHg 60%
20:00 +25°C° 0 mm 1 mps 733 mmHg 62%
21:00 +24°C° 0 mm 1 mps 733 mmHg 63%
22:00 +24°C° 0 mm 1 mps 734 mmHg 65%
23:00 +23°C° 0 mm 1 mps 733 mmHg 66%

12 July, Sunday

Time Temperature Precipitation Wind Pressure Humidity
00:00 +23°C° 0 mm 1 mps 733 mmHg 67%
01:00 +23°C° 0 mm 1 mps 733 mmHg 68%
02:00 +22°C° 0 mm 1 mps 733 mmHg 69%
03:00 +22°C° 0 mm 1 mps 733 mmHg 69%
04:00 +22°C° 0 mm 1 mps 732 mmHg 70%
05:00 +22°C° 0 mm 0 mps 733 mmHg 65%
06:00 +24°C° 0 mm 0 mps 733 mmHg 60%
07:00 +26°C° 0 mm 0 mps 734 mmHg 55%
08:00 +29°C° 0 mm 1 mps 734 mmHg 51%
09:00 +31°C° 0 mm 1 mps 734 mmHg 47%
10:00 +32°C° 0 mm 2 mps 734 mmHg 43%
11:00 +32°C° 0.2 mm 2 mps 734 mmHg 42%
12:00 +34°C° 0.2 mm 3 mps 734 mmHg 42%
13:00 +34°C° 0.2 mm 4 mps 734 mmHg 42%
14:00 +33°C° 0.2 mm 4 mps 734 mmHg 45%
15:00 +33°C° 0.2 mm 4 mps 734 mmHg 48%
16:00 +31°C° 0.2 mm 3 mps 734 mmHg 51%
17:00 +29°C° 0.2 mm 3 mps 734 mmHg 59%
18:00 +27°C° 0.2 mm 2 mps 734 mmHg 66%
19:00 +26°C° 0.2 mm 1 mps 734 mmHg 73%
20:00 +25°C° 0 mm 1 mps 734 mmHg 77%
21:00 +24°C° 0 mm 1 mps 734 mmHg 81%
22:00 +23°C° 0 mm 1 mps 734 mmHg 86%
23:00 +22°C° 0 mm 1 mps 734 mmHg 86%

13 July, Monday

Time Temperature Precipitation Wind Pressure Humidity
00:00 +22°C° 0 mm 1 mps 734 mmHg 87%
01:00 +22°C° 0 mm 1 mps 734 mmHg 88%
02:00 +21°C° 0 mm 1 mps 734 mmHg 88%
03:00 +20°C° 0 mm 2 mps 734 mmHg 88%
04:00 +19°C° 0 mm 2 mps 734 mmHg 88%
05:00 +21°C° 0 mm 2 mps 734 mmHg 82%
06:00 +23°C° 0 mm 2 mps 734 mmHg 76%
07:00 +24°C° 0 mm 2 mps 734 mmHg 70%
08:00 +26°C° 0 mm 2 mps 735 mmHg 64%
09:00 +27°C° 0 mm 2 mps 735 mmHg 59%
10:00 +29°C° 0 mm 2 mps 735 mmHg 53%
11:00 +29°C° 0 mm 3 mps 735 mmHg 50%
12:00 +30°C° 0 mm 3 mps 734 mmHg 47%
13:00 +31°C° 0 mm 3 mps 734 mmHg 45%
14:00 +31°C° 0 mm 3 mps 734 mmHg 45%
15:00 +30°C° 0 mm 3 mps 733 mmHg 46%
16:00 +30°C° 0 mm 3 mps 733 mmHg 46%
17:00 +28°C° 0 mm 3 mps 733 mmHg 51%
18:00 +27°C° 0 mm 2 mps 733 mmHg 56%
19:00 +25°C° 0 mm 2 mps 733 mmHg 61%
20:00 +24°C° 0 mm 2 mps 733 mmHg 62%
21:00 +21°C° 0 mm 2 mps 734 mmHg 63%
22:00 +20°C° 0 mm 3 mps 734 mmHg 63%
23:00 +19°C° 0 mm 3 mps 734 mmHg 63%

14 July, Tuesday

Time Temperature Precipitation Wind Pressure Humidity
00:00 +19°C° 0 mm 3 mps 734 mmHg 63%
01:00 +18°C° 0 mm 3 mps 734 mmHg 62%
02:00 +18°C° 0 mm 3 mps 734 mmHg 63%
03:00 +17°C° 0 mm 3 mps 733 mmHg 64%
04:00 +17°C° 0 mm 3 mps 733 mmHg 65%
05:00 +18°C° 0 mm 3 mps 734 mmHg 61%
06:00 +20°C° 0 mm 3 mps 734 mmHg 58%
07:00 +22°C° 0 mm 3 mps 734 mmHg 54%
08:00 +25°C° 0 mm 2 mps 734 mmHg 50%
09:00 +26°C° 0 mm 2 mps 734 mmHg 46%
10:00 +28°C° 0 mm 1 mps 734 mmHg 42%
11:00 +29°C° 0 mm 2 mps 734 mmHg 42%
12:00 +29°C° 0 mm 2 mps 734 mmHg 42%
13:00 +30°C° 0 mm 2 mps 734 mmHg 42%
14:00 +30°C° 0 mm 2 mps 734 mmHg 42%
15:00 +30°C° 0 mm 3 mps 734 mmHg 43%
16:00 +29°C° 0 mm 3 mps 733 mmHg 43%
17:00 +27°C° 0 mm 2 mps 733 mmHg 50%
18:00 +25°C° 0 mm 2 mps 733 mmHg 58%
19:00 +23°C° 0 mm 1 mps 733 mmHg 65%
20:00 +22°C° 0 mm 1 mps 734 mmHg 68%
21:00 +21°C° 0 mm 1 mps 734 mmHg 71%
22:00 +21°C° 0 mm 1 mps 734 mmHg 74%
23:00 +20°C° 0 mm 1 mps 734 mmHg 75%
Show more